Погода в Бут-Казмаляре

Россия / Республика Дагестан     41°42′12″N   48°23′56″E
темп.,
°C
ветер,
м/с
пор.,
м/с
влажн.,
%
обл.,
%
осадки,
мм/ч
давл.,
гПа
погр.,
м
22 сентября, ср
ср2200:00+17ю22775 0.0 101013
03:00+17з1170100 0.0 101011
06:00+17юз1172100 0.0 101111
09:00+24с2254100 0.0 1011643
12:00+23ссв7571100 0.1 1011942
15:00+21с5664100 0.1 1011828
18:00+20ссз2273100 0.1 1011103
21:00+20зсз1172100 0.1 101137
23 сентября, чт
чт2300:00+19ссз1282100 0.0 101073
03:00+17ссз228787 0.0 100944
06:00+18ссз2585100 0.1 1010315
09:00+18с6892100 1.1 1011691
12:00+18сз4783100 0.4 1010664
15:00+18ссз5679100 0.4 1010808
18:00+17сз3682100 0.2 1010300
21:00+16з348443 0.2 1009119
24 сентября, пт
пт2400:00+16з348694 0.1 1008137
03:00+16зсз2585100 0.2 1008224
06:00+16сз3683100 0.1 1008392
09:00+17ссз5680100 0.3 1009803
12:00+16ссз7880100 0.4 1011956
15:00+17ссз5871100 0.7 1011901
18:00+16ссз71071100 0.1 1014693
21:00+15ссз5775100 0.3 1015525
25 сентября, сб
сб2500:00+14зсз1183100 0.4 101640
03:00+13з1190100 2.4 101518
06:00+13юз119283 1.6 101659
09:00+16ююв227471 1.6 1016289
12:00+19вюв545689 0.0 10141239
15:00+18вюв445989 0.0 1013843
18:00+15ююв3474100 0.0 101371
21:00+13юз11827 0.0 101510
26 сентября, вс
вс2600:00+13з33820 0.0 101632
03:00+15ссз91464100 0.1 10191239
06:00+15ссз61059100 0.1 10211044
09:00+17ссз2548100 0.1 10231351
12:00+19всв334572 0.0 10211623
15:00+19в434626 0.0 10201443
18:00+15юв11593 0.0 102115
21:00+13ююз357211 0.0 102173